| time (UTC) | temp C | wind direction | speed KPH | gust KPH | rain 1hr cm | rain 24hr cm | rain mn cm | humidity % | barometer mb |
| 20260506233503 | 8 | 0 | 0.0 | 0.0 | 0.00 | 0.00 | 0.00 | 85 | 1014.1 |
| 20260506233004 | 8 | 0 | 0.0 | 0.0 | 0.00 | 0.00 | 0.00 | 85 | 1014.1 |
| 20260506232524 | 8 | 0 | 0.0 | 0.0 | 0.00 | 0.00 | 0.00 | 85 | 1014.3 |
| 20260506232004 | 8 | 0 | 0.0 | 0.0 | 0.00 | 0.00 | 0.00 | 85 | 1014.1 |
| 20260506231503 | 8 | 0 | 0.0 | 0.0 | 0.00 | 0.00 | 0.00 | 84 | 1014.0 |
| 20260506231003 | 8 | 0 | 0.0 | 0.0 | 0.00 | 0.00 | 0.00 | 84 | 1014.2 |
| 20260506230503 | 8 | 0 | 0.0 | 0.0 | 0.00 | 0.00 | 0.00 | 84 | 1014.1 |
| 20260506230003 | 8 | 0 | 0.0 | 0.0 | 0.00 | 0.00 | 0.00 | 84 | 1014.0 |
| 20260506225503 | 9 | 0 | 0.0 | 0.0 | 0.00 | 0.00 | 0.00 | 84 | 1014.2 |
| 20260506225004 | 9 | 0 | 0.0 | 0.0 | 0.00 | 0.00 | 0.00 | 84 | 1014.1 |
| 20260506224524 | 9 | 0 | 0.0 | 0.0 | 0.00 | 0.00 | 0.00 | 84 | 1014.1 |
| 20260506224003 | 9 | 0 | 0.0 | 0.0 | 0.00 | 0.00 | 0.00 | 84 | 1014.0 |
| 20260506223503 | 9 | 15 | 0.0 | 8.0 | 0.00 | 0.00 | 0.00 | 84 | 1014.0 |
| 20260506223003 | 9 | 30 | 1.6 | 8.0 | 0.00 | 0.00 | 0.00 | 84 | 1014.0 |
| 20260506222503 | 9 | 37 | 1.6 | 14.5 | 0.00 | 0.00 | 0.00 | 84 | 1014.0 |
| 20260506222005 | 10 | 39 | 0.0 | 14.5 | 0.00 | 0.00 | 0.00 | 84 | 1014.0 |
| 20260506221504 | 10 | 321 | 0.0 | 14.5 | 0.00 | 0.00 | 0.00 | 84 | 1014.0 |
| 20260506221003 | 10 | 329 | 1.6 | 14.5 | 0.00 | 0.00 | 0.00 | 84 | 1013.9 |
| 20260506220503 | 10 | 23 | 0.0 | 14.5 | 0.00 | 0.00 | 0.00 | 84 | 1013.9 |
| 20260506220006 | 10 | 27 | 0.0 | 14.5 | 0.00 | 0.00 | 0.00 | 84 | 1013.8 |
| 20260506215503 | 10 | 11 | 0.0 | 6.4 | 0.00 | 0.00 | 0.00 | 83 | 1013.8 |
| 20260506215005 | 10 | 20 | 0.0 | 8.0 | 0.00 | 0.00 | 0.00 | 83 | 1013.7 |
| 20260506214503 | 10 | 351 | 0.0 | 8.0 | 0.00 | 0.00 | 0.00 | 83 | 1013.6 |
| 20260506214024 | 10 | 342 | 0.0 | 6.4 | 0.00 | 0.00 | 0.00 | 83 | 1013.6 |
| 20260506213524 | 10 | 331 | 0.0 | 8.0 | 0.00 | 0.00 | 0.00 | 82 | 1013.6 |
| 20260506213003 | 10 | 340 | 1.6 | 12.9 | 0.00 | 0.00 | 0.00 | 82 | 1013.7 |
| 20260506212503 | 10 | 348 | 1.6 | 12.9 | 0.00 | 0.00 | 0.00 | 81 | 1013.5 |
| 20260506212003 | 10 | 351 | 0.0 | 12.9 | 0.00 | 0.00 | 0.00 | 81 | 1013.5 |
| 20260506211505 | 10 | 331 | 0.0 | 12.9 | 0.00 | 0.00 | 0.00 | 81 | 1013.5 |
| 20260506211003 | 10 | 4 | 0.0 | 12.9 | 0.00 | 0.00 | 0.00 | 80 | 1013.3 |
| 20260506210503 | 11 | 3 | 1.6 | 14.5 | 0.00 | 0.00 | 0.00 | 80 | 1013.3 |
| 20260506210025 | 11 | 6 | 1.6 | 14.5 | 0.00 | 0.00 | 0.00 | 80 | 1013.3 |
| 20260506205503 | 11 | 5 | 3.2 | 14.5 | 0.00 | 0.00 | 0.00 | 79 | 1013.2 |
| 20260506205004 | 11 | 358 | 3.2 | 14.5 | 0.00 | 0.00 | 0.00 | 79 | 1013.2 |
| 20260506204504 | 11 | 7 | 3.2 | 16.1 | 0.00 | 0.00 | 0.00 | 78 | 1013.1 |
| 20260506204003 | 11 | 19 | 3.2 | 16.1 | 0.00 | 0.00 | 0.00 | 78 | 1013.1 |
| 20260506203525 | 11 | 12 | 1.6 | 14.5 | 0.00 | 0.00 | 0.00 | 78 | 1013.1 |
| 20260506203003 | 11 | 351 | 1.6 | 12.9 | 0.00 | 0.00 | 0.00 | 77 | 1013.1 |
| 20260506202524 | 11 | 3 | 3.2 | 14.5 | 0.00 | 0.00 | 0.00 | 77 | 1013.0 |
| 20260506202004 | 11 | 16 | 3.2 | 16.1 | 0.00 | 0.00 | 0.00 | 76 | 1012.9 |
| 20260506201524 | 11 | 12 | 3.2 | 16.1 | 0.00 | 0.00 | 0.00 | 76 | 1012.9 |
| 20260506201003 | 11 | 353 | 3.2 | 14.5 | 0.00 | 0.00 | 0.00 | 75 | 1012.9 |
| 20260506200503 | 11 | 347 | 1.6 | 14.5 | 0.00 | 0.00 | 0.00 | 75 | 1012.8 |
| 20260506200025 | 11 | 28 | 1.6 | 16.1 | 0.00 | 0.00 | 0.00 | 75 | 1012.8 |
| 20260506195503 | 12 | 23 | 1.6 | 16.1 | 0.00 | 0.00 | 0.00 | 74 | 1012.7 |
| 20260506195003 | 12 | 13 | 1.6 | 12.9 | 0.00 | 0.00 | 0.00 | 74 | 1012.5 |
| 20260506194504 | 12 | 4 | 3.2 | 17.7 | 0.00 | 0.00 | 0.00 | 74 | 1012.4 |
| 20260506194024 | 12 | 2 | 3.2 | 17.7 | 0.00 | 0.00 | 0.00 | 74 | 1012.4 |
| 20260506193503 | 12 | 3 | 1.6 | 16.1 | 0.00 | 0.00 | 0.00 | 73 | 1012.3 |
| 20260506193003 | 12 | 5 | 1.6 | 16.1 | 0.00 | 0.00 | 0.00 | 72 | 1012.4 |
| 20260506192504 | 12 | 357 | 0.0 | 9.7 | 0.00 | 0.00 | 0.00 | 71 | 1012.3 |
| 20260506192004 | 12 | 16 | 0.0 | 8.0 | 0.00 | 0.00 | 0.00 | 70 | 1012.1 |
| 20260506191503 | 12 | 18 | 0.0 | 14.5 | 0.00 | 0.00 | 0.00 | 70 | 1012.1 |
| 20260506191003 | 12 | 7 | 1.6 | 14.5 | 0.00 | 0.00 | 0.00 | 69 | 1012.0 |
| 20260506190503 | 12 | 341 | 1.6 | 14.5 | 0.00 | 0.00 | 0.00 | 69 | 1011.9 |
| 20260506190004 | 12 | 353 | 4.8 | 17.7 | 0.00 | 0.00 | 0.00 | 69 | 1011.8 |
| 20260506185524 | 12 | 354 | 4.8 | 20.9 | 0.00 | 0.00 | 0.00 | 68 | 1011.7 |
| 20260506185003 | 13 | 356 | 3.2 | 20.9 | 0.00 | 0.00 | 0.00 | 68 | 1011.8 |
| 20260506184503 | 13 | 360 | 4.8 | 16.1 | 0.00 | 0.00 | 0.00 | 68 | 1011.7 |
| 20260506184003 | 13 | 358 | 4.8 | 16.1 | 0.00 | 0.00 | 0.00 | 67 | 1011.7 |
| 20260506183503 | 13 | 358 | 3.2 | 17.7 | 0.00 | 0.00 | 0.00 | 68 | 1011.5 |
| 20260506183003 | 13 | 352 | 4.8 | 17.7 | 0.00 | 0.00 | 0.00 | 68 | 1011.4 |
| 20260506182504 | 13 | 355 | 4.8 | 19.3 | 0.00 | 0.00 | 0.00 | 68 | 1011.4 |
| 20260506182003 | 13 | 359 | 4.8 | 19.3 | 0.00 | 0.00 | 0.00 | 68 | 1011.3 |
| 20260506181526 | 13 | 356 | 4.8 | 17.7 | 0.00 | 0.00 | 0.00 | 68 | 1011.2 |
| 20260506181026 | 13 | 3 | 6.4 | 20.9 | 0.00 | 0.00 | 0.00 | 67 | 1011.2 |
| 20260506180503 | 13 | 8 | 3.2 | 20.9 | 0.00 | 0.00 | 0.00 | 67 | 1011.2 |
| 20260506180024 | 13 | 354 | 3.2 | 20.9 | 0.00 | 0.00 | 0.00 | 67 | 1011.2 |
| 20260506175503 | 13 | 351 | 4.8 | 20.9 | 0.00 | 0.00 | 0.00 | 66 | 1011.1 |
| 20260506175004 | 14 | 4 | 3.2 | 20.9 | 0.00 | 0.00 | 0.00 | 66 | 1011.1 |
| 20260506174503 | 14 | 360 | 3.2 | 20.9 | 0.00 | 0.00 | 0.00 | 67 | 1010.9 |
| 20260506174024 | 14 | 356 | 4.8 | 22.5 | 0.00 | 0.00 | 0.00 | 66 | 1010.9 |
| 20260506173503 | 14 | 357 | 4.8 | 22.5 | 0.00 | 0.00 | 0.00 | 67 | 1010.7 |
| 20260506173004 | 14 | 1 | 3.2 | 17.7 | 0.00 | 0.00 | 0.00 | 67 | 1010.8 |
| 20260506172503 | 14 | 359 | 3.2 | 17.7 | 0.00 | 0.00 | 0.00 | 67 | 1010.6 |
| 20260506172004 | 14 | 352 | 3.2 | 16.1 | 0.00 | 0.00 | 0.00 | 67 | 1010.6 |
| 20260506171503 | 14 | 1 | 3.2 | 17.7 | 0.00 | 0.00 | 0.00 | 68 | 1010.7 |
| 20260506171003 | 14 | 359 | 4.8 | 22.5 | 0.00 | 0.00 | 0.00 | 68 | 1010.6 |
| 20260506170525 | 14 | 1 | 4.8 | 22.5 | 0.00 | 0.00 | 0.00 | 68 | 1010.6 |
| 20260506170024 | 14 | 3 | 4.8 | 17.7 | 0.00 | 0.00 | 0.00 | 67 | 1010.6 |
| 20260506165503 | 14 | 9 | 3.2 | 19.3 | 0.00 | 0.00 | 0.00 | 67 | 1010.5 |
| 20260506165003 | 14 | 5 | 3.2 | 19.3 | 0.00 | 0.00 | 0.00 | 67 | 1010.4 |
| 20260506164524 | 14 | 11 | 4.8 | 19.3 | 0.00 | 0.00 | 0.00 | 67 | 1010.5 |
| 20260506164024 | 14 | 16 | 3.2 | 19.3 | 0.00 | 0.00 | 0.00 | 66 | 1010.5 |
| 20260506163505 | 15 | 1 | 1.6 | 16.1 | 0.00 | 0.00 | 0.00 | 66 | 1010.4 |
| 20260506163003 | 14 | 7 | 3.2 | 16.1 | 0.00 | 0.00 | 0.00 | 66 | 1010.3 |
| 20260506162504 | 14 | 16 | 3.2 | 14.5 | 0.00 | 0.00 | 0.00 | 67 | 1010.4 |
| 20260506162003 | 14 | 26 | 4.8 | 24.1 | 0.00 | 0.00 | 0.00 | 67 | 1010.4 |
| 20260506161503 | 14 | 29 | 4.8 | 24.1 | 0.00 | 0.00 | 0.00 | 66 | 1010.3 |
| 20260506161003 | 14 | 17 | 4.8 | 19.3 | 0.00 | 0.00 | 0.00 | 60 | 1010.4 |
| 20260506160503 | 14 | 14 | 4.8 | 19.3 | 0.00 | 0.00 | 0.00 | 63 | 1010.4 |
| 20260506160004 | 14 | 26 | 1.6 | 14.5 | 0.00 | 0.00 | 0.00 | 63 | 1010.3 |
| 20260506155503 | 14 | 26 | 3.2 | 16.1 | 0.00 | 0.00 | 0.00 | 63 | 1010.3 |
| 20260506155003 | 14 | 25 | 4.8 | 19.3 | 0.00 | 0.00 | 0.00 | 65 | 1010.4 |
| 20260506154503 | 14 | 25 | 4.8 | 19.3 | 0.00 | 0.00 | 0.00 | 67 | 1010.4 |
| 20260506154003 | 14 | 25 | 1.6 | 17.7 | 0.00 | 0.00 | 0.00 | 68 | 1010.3 |
| 20260506153503 | 14 | 344 | 0.0 | 17.7 | 0.00 | 0.00 | 0.00 | 68 | 1010.2 |
| 20260506153003 | 14 | 360 | 1.6 | 17.7 | 0.00 | 0.00 | 0.00 | 68 | 1010.3 |
| 20260506152503 | 14 | 21 | 3.2 | 17.7 | 0.00 | 0.00 | 0.00 | 68 | 1010.2 |
| 20260506152024 | 14 | 38 | 4.8 | 24.1 | 0.00 | 0.00 | 0.00 | 67 | 1010.2 |
| 20260506151503 | 14 | 39 | 3.2 | 24.1 | 0.00 | 0.00 | 0.00 | 65 | 1010.1 |
| 20260506151003 | 14 | 10 | 1.6 | 16.1 | 0.00 | 0.00 | 0.00 | 69 | 1010.2 |
| 20260506150504 | 14 | 351 | 3.2 | 16.1 | 0.00 | 0.00 | 0.00 | 69 | 1010.2 |
| 20260506150004 | 14 | 357 | 3.2 | 19.3 | 0.00 | 0.00 | 0.00 | 68 | 1010.0 |
| 20260506145503 | 14 | 348 | 3.2 | 19.3 | 0.00 | 0.00 | 0.00 | 68 | 1010.0 |
| 20260506145003 | 14 | 349 | 3.2 | 17.7 | 0.00 | 0.00 | 0.00 | 68 | 1010.0 |
| 20260506144503 | 14 | 349 | 4.8 | 19.3 | 0.00 | 0.00 | 0.00 | 67 | 1010.1 |
| 20260506144003 | 14 | 349 | 6.4 | 20.9 | 0.00 | 0.00 | 0.00 | 67 | 1010.0 |
| 20260506143503 | 14 | 358 | 4.8 | 20.9 | 0.00 | 0.00 | 0.00 | 67 | 1010.1 |
| 20260506143003 | 15 | 4 | 3.2 | 20.9 | 0.00 | 0.00 | 0.00 | 67 | 1010.0 |
| 20260506142503 | 15 | 360 | 3.2 | 16.1 | 0.00 | 0.00 | 0.00 | 67 | 1009.9 |
| 20260506142003 | 15 | 4 | 4.8 | 19.3 | 0.00 | 0.00 | 0.00 | 67 | 1010.0 |
| 20260506141503 | 15 | 3 | 3.2 | 19.3 | 0.00 | 0.00 | 0.00 | 66 | 1010.1 |
| 20260506141003 | 15 | 8 | 4.8 | 20.9 | 0.00 | 0.00 | 0.00 | 67 | 1009.9 |
| 20260506140503 | 15 | 19 | 6.4 | 24.1 | 0.00 | 0.00 | 0.00 | 66 | 1010.1 |
| 20260506140004 | 15 | 22 | 4.8 | 24.1 | 0.00 | 0.00 | 0.00 | 64 | 1010.0 |
| 20260506135503 | 15 | 19 | 4.8 | 17.7 | 0.00 | 0.00 | 0.00 | 57 | 1010.0 |
| 20260506135003 | 15 | 25 | 6.4 | 22.5 | 0.00 | 0.00 | 0.00 | 51 | 1010.1 |
| 20260506134503 | 15 | 25 | 4.8 | 22.5 | 0.00 | 0.00 | 0.00 | 52 | 1010.0 |
| 20260506134003 | 15 | 16 | 3.2 | 16.1 | 0.00 | 0.00 | 0.00 | 52 | 1009.9 |
| 20260506133503 | 15 | 21 | 3.2 | 16.1 | 0.00 | 0.00 | 0.00 | 51 | 1009.9 |
| 20260506133004 | 15 | 30 | 4.8 | 22.5 | 0.00 | 0.00 | 0.00 | 50 | 1009.9 |
| 20260506132504 | 15 | 26 | 8.0 | 22.5 | 0.00 | 0.00 | 0.00 | 50 | 1009.8 |
| 20260506132003 | 16 | 26 | 8.0 | 22.5 | 0.00 | 0.00 | 0.00 | 43 | 1010.0 |
| 20260506131503 | 16 | 28 | 6.4 | 25.7 | 0.00 | 0.00 | 0.00 | 42 | 1009.9 |
| 20260506131024 | 16 | 26 | 6.4 | 25.7 | 0.00 | 0.00 | 0.00 | 47 | 1009.8 |
| 20260506130503 | 16 | 22 | 6.4 | 20.9 | 0.00 | 0.00 | 0.00 | 47 | 1009.8 |
| 20260506130003 | 16 | 16 | 8.0 | 25.7 | 0.00 | 0.00 | 0.00 | 48 | 1009.8 |
| 20260506125524 | 15 | 19 | 9.7 | 25.7 | 0.00 | 0.00 | 0.00 | 50 | 1009.7 |
| 20260506125004 | 15 | 19 | 11.3 | 25.7 | 0.00 | 0.00 | 0.00 | 48 | 1009.9 |
| 20260506124503 | 15 | 13 | 9.7 | 25.7 | 0.00 | 0.00 | 0.00 | 52 | 1009.8 |
| 20260506124003 | 15 | 9 | 9.7 | 27.4 | 0.00 | 0.00 | 0.00 | 52 | 1009.9 |
| 20260506123503 | 15 | 15 | 11.3 | 27.4 | 0.00 | 0.00 | 0.00 | 52 | 1009.9 |
| 20260506123003 | 15 | 27 | 9.7 | 22.5 | 0.00 | 0.00 | 0.00 | 53 | 1009.7 |
| 20260506122527 | 15 | 33 | 8.0 | 22.5 | 0.00 | 0.00 | 0.00 | 52 | 1009.9 |
| 20260506122525 | 15 | 34 | 8.0 | 22.5 | 0.00 | 0.00 | 0.00 | 52 | 1009.9 |
| 20260506122026 | 15 | 23 | 9.7 | 24.1 | 0.00 | 0.00 | 0.00 | 51 | 1009.8 |
| 20260506121504 | 15 | 26 | 11.3 | 30.6 | 0.00 | 0.00 | 0.00 | 51 | 1009.8 |
| 20260506121004 | 15 | 24 | 12.9 | 30.6 | 0.00 | 0.00 | 0.00 | 51 | 1009.8 |
| 20260506120503 | 15 | 20 | 11.3 | 25.7 | 0.00 | 0.00 | 0.00 | 46 | 1009.7 |
| 20260506120005 | 15 | 25 | 9.7 | 24.1 | 0.00 | 0.00 | 0.00 | 51 | 1009.7 |
| 20260506115529 | 15 | 26 | 11.3 | 24.1 | 0.00 | 0.00 | 0.00 | 52 | 1009.7 |
| 20260506115526 | 15 | 26 | 11.3 | 24.1 | 0.00 | 0.00 | 0.00 | 52 | 1009.7 |
| 20260506115003 | 15 | 31 | 8.0 | 24.1 | 0.00 | 0.00 | 0.00 | 52 | 1009.8 |
| 20260506114503 | 15 | 28 | 8.0 | 24.1 | 0.00 | 0.00 | 0.00 | 52 | 1009.7 |
| 20260506114003 | 15 | 18 | 8.0 | 20.9 | 0.00 | 0.00 | 0.00 | 54 | 1009.8 |
| 20260506113503 | 15 | 29 | 6.4 | 20.9 | 0.00 | 0.00 | 0.00 | 55 | 1009.7 |
| 20260506113024 | 15 | 35 | 8.0 | 22.5 | 0.00 | 0.00 | 0.00 | 56 | 1009.7 |
| 20260506112503 | 15 | 31 | 8.0 | 22.5 | 0.00 | 0.00 | 0.00 | 59 | 1009.8 |
| 20260506112003 | 15 | 26 | 9.7 | 24.1 | 0.00 | 0.00 | 0.00 | 59 | 1009.8 |
| 20260506111503 | 15 | 26 | 9.7 | 25.7 | 0.00 | 0.00 | 0.00 | 60 | 1009.7 |
| 20260506111024 | 15 | 24 | 6.4 | 25.7 | 0.00 | 0.00 | 0.00 | 56 | 1009.7 |
| 20260506110503 | 15 | 2 | 4.8 | 17.7 | 0.00 | 0.00 | 0.00 | 69 | 1009.7 |
| 20260506110004 | 15 | 4 | 3.2 | 19.3 | 0.00 | 0.00 | 0.00 | 68 | 1009.7 |
| 20260506105503 | 15 | 23 | 3.2 | 19.3 | 0.00 | 0.00 | 0.00 | 68 | 1009.7 |
| 20260506105003 | 15 | 2 | 4.8 | 19.3 | 0.00 | 0.00 | 0.00 | 68 | 1009.7 |
| 20260506104525 | 15 | 2 | 4.8 | 19.3 | 0.00 | 0.00 | 0.00 | 67 | 1009.7 |
| 20260506104003 | 15 | 8 | 3.2 | 22.5 | 0.00 | 0.00 | 0.00 | 68 | 1009.7 |
| 20260506103503 | 15 | 2 | 4.8 | 22.5 | 0.00 | 0.00 | 0.00 | 69 | 1009.6 |
| 20260506103003 | 15 | 1 | 4.8 | 17.7 | 0.00 | 0.00 | 0.00 | 69 | 1009.6 |
| 20260506102503 | 15 | 9 | 3.2 | 17.7 | 0.00 | 0.00 | 0.00 | 68 | 1009.8 |
| 20260506102003 | 15 | 3 | 4.8 | 22.5 | 0.00 | 0.00 | 0.00 | 69 | 1009.7 |
| 20260506101503 | 15 | 9 | 4.8 | 22.5 | 0.00 | 0.00 | 0.00 | 69 | 1009.6 |
| 20260506101003 | 15 | 18 | 4.8 | 19.3 | 0.00 | 0.00 | 0.00 | 70 | 1009.7 |
| 20260506100503 | 15 | 8 | 6.4 | 19.3 | 0.00 | 0.00 | 0.00 | 70 | 1009.6 |
| 20260506100004 | 14 | 2 | 4.8 | 22.5 | 0.00 | 0.00 | 0.00 | 72 | 1009.7 |
| 20260506095503 | 15 | 358 | 4.8 | 22.5 | 0.00 | 0.00 | 0.00 | 73 | 1009.6 |
| 20260506095004 | 15 | 355 | 4.8 | 20.9 | 0.00 | 0.00 | 0.00 | 73 | 1009.5 |
| 20260506094503 | 14 | 359 | 3.2 | 20.9 | 0.00 | 0.00 | 0.00 | 73 | 1009.5 |
| 20260506094003 | 14 | 13 | 3.2 | 16.1 | 0.00 | 0.00 | 0.00 | 73 | 1009.6 |
| 20260506093503 | 14 | 17 | 3.2 | 16.1 | 0.00 | 0.00 | 0.00 | 72 | 1009.5 |
| 20260506093003 | 14 | 12 | 6.4 | 20.9 | 0.00 | 0.00 | 0.00 | 72 | 1009.3 |
| 20260506092503 | 14 | 7 | 6.4 | 22.5 | 0.00 | 0.00 | 0.00 | 72 | 1009.5 |
| 20260506092004 | 14 | 355 | 4.8 | 22.5 | 0.00 | 0.00 | 0.00 | 73 | 1009.4 |
| 20260506091524 | 14 | 343 | 3.2 | 17.7 | 0.00 | 0.00 | 0.00 | 73 | 1009.4 |
| 20260506091003 | 14 | 359 | 4.8 | 17.7 | 0.00 | 0.00 | 0.00 | 73 | 1009.4 |
| 20260506090503 | 14 | 19 | 8.0 | 20.9 | 0.00 | 0.00 | 0.00 | 74 | 1009.3 |
| 20260506090025 | 14 | 26 | 6.4 | 24.1 | 0.00 | 0.00 | 0.00 | 74 | 1009.2 |
| 20260506085525 | 14 | 21 | 6.4 | 24.1 | 0.00 | 0.00 | 0.00 | 74 | 1009.2 |
| 20260506085003 | 14 | 25 | 6.4 | 19.3 | 0.00 | 0.00 | 0.00 | 75 | 1009.1 |
| 20260506084503 | 14 | 32 | 6.4 | 19.3 | 0.00 | 0.00 | 0.00 | 75 | 1009.1 |
| 20260506084003 | 14 | 23 | 4.8 | 19.3 | 0.00 | 0.00 | 0.00 | 75 | 1009.2 |
| 20260506083503 | 14 | 21 | 4.8 | 19.3 | 0.00 | 0.00 | 0.00 | 76 | 1009.1 |
| 20260506083003 | 13 | 20 | 4.8 | 19.3 | 0.00 | 0.00 | 0.00 | 76 | 1009.0 |
| 20260506082503 | 13 | 4 | 3.2 | 16.1 | 0.00 | 0.00 | 0.00 | 77 | 1009.0 |
| 20260506082026 | 13 | 7 | 3.2 | 16.1 | 0.00 | 0.00 | 0.00 | 77 | 1009.0 |
| 20260506081503 | 13 | 3 | 4.8 | 17.7 | 0.00 | 0.00 | 0.00 | 77 | 1008.9 |
| 20260506081003 | 13 | 358 | 4.8 | 17.7 | 0.00 | 0.00 | 0.00 | 78 | 1008.8 |
| 20260506080503 | 13 | 19 | 4.8 | 19.3 | 0.00 | 0.00 | 0.00 | 78 | 1008.8 |
| 20260506073503 | 12 | 28 | 9.7 | 25.7 | 0.00 | 0.00 | 0.00 | 83 | 1008.7 |
| 20260506073003 | 12 | 23 | 8.0 | 25.7 | 0.00 | 0.00 | 0.00 | 83 | 1008.7 |
| 20260506072503 | 12 | 17 | 4.8 | 17.7 | 0.00 | 0.00 | 0.00 | 84 | 1008.8 |
| 20260506072026 | 12 | 1 | 3.2 | 19.3 | 0.00 | 0.00 | 0.00 | 85 | 1008.8 |
| 20260506071503 | 12 | 343 | 1.6 | 19.3 | 0.00 | 0.00 | 0.00 | 81 | 1008.9 |
| 20260506071003 | 12 | 357 | 4.8 | 20.9 | 0.00 | 0.00 | 0.00 | 81 | 1009.1 |
| 20260506070503 | 12 | 357 | 4.8 | 20.9 | 0.00 | 0.00 | 0.00 | 81 | 1008.4 |
| 20260506062503 | 11 | 5 | 6.4 | 17.7 | 0.00 | 0.00 | 0.00 | 83 | 1008.9 |
| 20260506062003 | 11 | 3 | 4.8 | 17.7 | 0.00 | 0.00 | 0.00 | 89 | 1008.9 |
| 20260506061503 | 11 | 356 | 3.2 | 17.7 | 0.00 | 0.00 | 0.00 | 89 | 1008.7 |
| 20260506061003 | 11 | 357 | 1.6 | 11.3 | 0.00 | 0.00 | 0.00 | 89 | 1008.7 |
| 20260506060527 | 11 | 14 | 0.0 | 11.3 | 0.00 | 0.00 | 0.00 | 89 | 1008.6 |
| 20260506051003 | 10 | 20 | 4.8 | 16.1 | 0.00 | 0.00 | 0.00 | 89 | 1008.6 |
| 20260506045003 | 10 | 349 | 0.0 | 9.7 | 0.00 | 0.00 | 0.00 | 89 | 1008.8 |
| 20260506044503 | 10 | 359 | 0.0 | 12.9 | 0.00 | 0.00 | 0.00 | 90 | 1008.8 |
| 20260506044024 | 10 | 10 | 1.6 | 14.5 | 0.00 | 0.00 | 0.00 | 90 | 1008.8 |
| 20260506043503 | 10 | 15 | 1.6 | 14.5 | 0.00 | 0.00 | 0.00 | 90 | 1008.7 |
| 20260506043024 | 10 | 15 | 1.6 | 14.5 | 0.00 | 0.00 | 0.00 | 90 | 1008.8 |
| 20260506042503 | 10 | 2 | 1.6 | 14.5 | 0.00 | 0.00 | 0.00 | 90 | 1008.8 |
| 20260506042003 | 10 | 351 | 1.6 | 14.5 | 0.00 | 0.00 | 0.00 | 90 | 1008.8 |
| 20260506041503 | 10 | 358 | 1.6 | 14.5 | 0.00 | 0.00 | 0.00 | 90 | 1008.8 |
| 20260506041003 | 10 | 9 | 1.6 | 16.1 | 0.00 | 0.00 | 0.00 | 90 | 1008.8 |
| 20260506040504 | 10 | 5 | 3.2 | 16.1 | 0.00 | 0.00 | 0.00 | 90 | 1008.7 |
| 20260506040003 | 10 | 6 | 3.2 | 16.1 | 0.00 | 0.00 | 0.00 | 90 | 1008.8 |
| 20260506035503 | 10 | 6 | 1.6 | 12.9 | 0.00 | 0.00 | 0.00 | 90 | 1008.9 |
| 20260506035004 | 10 | 359 | 1.6 | 14.5 | 0.00 | 0.00 | 0.00 | 90 | 1008.8 |
| 20260506034504 | 10 | 356 | 1.6 | 14.5 | 0.00 | 0.00 | 0.00 | 90 | 1008.8 |
| 20260506034003 | 10 | 354 | 0.0 | 12.9 | 0.00 | 0.00 | 0.00 | 90 | 1008.9 |
| 20260506033503 | 10 | 5 | 0.0 | 8.0 | 0.00 | 0.00 | 0.00 | 90 | 1008.9 |
| 20260506033004 | 10 | 6 | 0.0 | 8.0 | 0.00 | 0.00 | 0.00 | 90 | 1008.9 |
| 20260506032503 | 10 | 22 | 1.6 | 9.7 | 0.00 | 0.00 | 0.00 | 90 | 1008.9 |
| 20260506032003 | 10 | 17 | 1.6 | 12.9 | 0.00 | 0.00 | 0.00 | 90 | 1008.9 |
| 20260506031503 | 10 | 360 | 0.0 | 12.9 | 0.00 | 0.00 | 0.00 | 90 | 1009.0 |
| 20260506031003 | 10 | 358 | 0.0 | 6.4 | 0.00 | 0.00 | 0.00 | 90 | 1009.0 |
| 20260506030503 | 10 | 360 | 1.6 | 16.1 | 0.00 | 0.00 | 0.00 | 90 | 1009.0 |
| 20260506030003 | 10 | 357 | 1.6 | 16.1 | 0.00 | 0.00 | 0.00 | 90 | 1009.1 |
| 20260506025504 | 10 | 350 | 1.6 | 9.7 | 0.00 | 0.00 | 0.00 | 90 | 1009.2 |
| 20260506025003 | 10 | 350 | 0.0 | 9.7 | 0.00 | 0.00 | 0.00 | 90 | 1009.1 |
| 20260506024503 | 10 | 1 | 0.0 | 14.5 | 0.00 | 0.00 | 0.00 | 90 | 1009.2 |
| 20260506024024 | 10 | 3 | 1.6 | 16.1 | 0.00 | 0.00 | 0.00 | 90 | 1009.1 |
| 20260506023503 | 10 | 2 | 1.6 | 16.1 | 0.00 | 0.00 | 0.00 | 90 | 1009.1 |
| 20260506023026 | 10 | 0 | 0.0 | 0.0 | 0.00 | 0.00 | 0.00 | 90 | 1009.1 |
| 20260506023024 | 10 | 0 | 0.0 | 0.0 | 0.00 | 0.00 | 0.00 | 90 | 1009.1 |
| 20260506022503 | 10 | 18 | 1.6 | 14.5 | 0.00 | 0.00 | 0.00 | 90 | 1009.1 |
| 20260506022003 | 10 | 11 | 1.6 | 14.5 | 0.00 | 0.00 | 0.00 | 90 | 1009.2 |
| 20260506021505 | 10 | 358 | 1.6 | 14.5 | 0.00 | 0.00 | 0.00 | 90 | 1009.2 |
| 20260506021503 | 10 | 358 | 1.6 | 14.5 | 0.00 | 0.00 | 0.00 | 90 | 1009.2 |
| 20260506021003 | 10 | 359 | 1.6 | 9.7 | 0.00 | 0.00 | 0.00 | 90 | 1009.2 |
| 20260506020503 | 10 | 10 | 1.6 | 9.7 | 0.00 | 0.00 | 0.00 | 90 | 1009.3 |
| 20260506020024 | 10 | 359 | 1.6 | 11.3 | 0.00 | 0.00 | 0.00 | 90 | 1009.3 |
| 20260506015507 | 10 | 12 | 1.6 | 14.5 | 0.00 | 0.00 | 0.00 | 90 | 1009.4 |
| 20260506015504 | 10 | 11 | 1.6 | 14.5 | 0.00 | 0.00 | 0.00 | 90 | 1009.4 |
| 20260506015003 | 10 | 12 | 1.6 | 14.5 | 0.00 | 0.00 | 0.00 | 90 | 1009.3 |
| 20260506014503 | 10 | 347 | 0.0 | 9.7 | 0.00 | 0.00 | 0.00 | 90 | 1009.4 |
| 20260506014003 | 10 | 336 | 0.0 | 11.3 | 0.00 | 0.00 | 0.00 | 90 | 1009.4 |
| 20260506013524 | 10 | 340 | 0.0 | 11.3 | 0.00 | 0.00 | 0.00 | 90 | 1009.4 |
| 20260506013028 | 10 | 18 | 1.6 | 16.1 | 0.00 | 0.00 | 0.00 | 90 | 1009.5 |
| 20260506013024 | 10 | 18 | 1.6 | 16.1 | 0.00 | 0.00 | 0.00 | 90 | 1009.5 |
| 20260506012503 | 10 | 18 | 1.6 | 16.1 | 0.00 | 0.00 | 0.00 | 90 | 1009.4 |
| 20260506012004 | 10 | 13 | 1.6 | 11.3 | 0.00 | 0.00 | 0.00 | 90 | 1009.4 |
| 20260506011503 | 10 | 7 | 1.6 | 11.3 | 0.00 | 0.00 | 0.00 | 90 | 1009.5 |
| 20260506011003 | 9 | 357 | 1.6 | 9.7 | 0.00 | 0.00 | 0.00 | 90 | 1009.4 |
| 20260506010507 | 9 | 6 | 1.6 | 11.3 | 0.00 | 0.00 | 0.00 | 90 | 1009.5 |
| 20260506010505 | 9 | 6 | 1.6 | 11.3 | 0.00 | 0.00 | 0.00 | 90 | 1009.5 |
| 20260506010003 | 9 | 13 | 1.6 | 14.5 | 0.00 | 0.00 | 0.00 | 90 | 1009.6 |
| 20260506005503 | 9 | 11 | 1.6 | 14.5 | 0.00 | 0.00 | 0.00 | 90 | 1009.6 |
| 20260506005003 | 9 | 18 | 1.6 | 11.3 | 0.00 | 0.00 | 0.00 | 90 | 1009.7 |
| 20260506004504 | 9 | 30 | 0.0 | 9.7 | 0.00 | 0.00 | 0.00 | 90 | 1009.7 |
| 20260506004003 | 9 | 20 | 0.0 | 11.3 | 0.00 | 0.00 | 0.00 | 90 | 1009.8 |
| 20260506003503 | 9 | 11 | 0.0 | 11.3 | 0.00 | 0.00 | 0.00 | 90 | 1009.8 |
| 20260506003003 | 9 | 22 | 0.0 | 12.9 | 0.00 | 0.00 | 0.00 | 90 | 1009.8 |
| 20260506002503 | 9 | 15 | 0.0 | 14.5 | 0.00 | 0.00 | 0.00 | 90 | 1010.0 |
| 20260506002004 | 9 | 9 | 1.6 | 14.5 | 0.00 | 0.00 | 0.00 | 90 | 1010.0 |
| 20260506001503 | 9 | 7 | 0.0 | 11.3 | 0.00 | 0.00 | 0.00 | 90 | 1010.0 |
| 20260506001003 | 9 | 348 | 1.6 | 9.7 | 0.00 | 0.00 | 0.00 | 90 | 1010.0 |
| 20260506000504 | 9 | 349 | 1.6 | 9.7 | 0.00 | 0.00 | 0.00 | 90 | 1010.2 |
| 20260506000024 | 9 | 7 | 0.0 | 12.9 | 0.00 | 0.00 | 0.00 | 90 | 1010.1 |
| 20260505235507 | 9 | 1 | 1.6 | 12.9 | 0.00 | 0.00 | 0.00 | 90 | 1010.1 |
| 20260505235503 | 9 | 1 | 1.6 | 12.9 | 0.00 | 0.00 | 0.00 | 90 | 1010.1 |
| 20260505235003 | 9 | 13 | 0.0 | 9.7 | 0.00 | 0.00 | 0.00 | 90 | 1010.3 |
| 20260505234503 | 9 | 13 | 0.0 | 9.7 | 0.00 | 0.00 | 0.00 | 90 | 1010.3 |
| 20260505234003 | 9 | 5 | 0.0 | 11.3 | 0.00 | 0.00 | 0.00 | 90 | 1010.3 |